Flag for Liberia Weather past 2 weeks in Gbarnga, Liberia

Now
79 °F

Thunderstorms. Partly cloudy.


Feels Like: 83 °F
Forecast: N/A
Wind: No wind

Location: Roberts Field

Current Time: May 27, 2015 at 10:17:42 PM

Latest Report: May 27, 2015 at 9:30 PM


Visibility: 4 mi

Pressure: 29.95 "Hg

Humidity: 94%

Dew point: 77 °F

Location of GbarngaLocation

Historic Weather in Gbarnga — Graph

°F

Gbarnga temperature yesterday

Maximum temperature yesterday: 86 °F (at 11:00 AM)
Minimum temperature yesterday: 79 °F (at 12:30 AM)
Average temperature yesterday: 82 °F

Past Weeks' High & Low Weather Summary

 TemperatureHumidityPressure
High93 °F (May 18, 1:30 PM)100% (May 13, 2:00 AM)29.98 "Hg (May 13, 2:00 AM)
Low72 °F (May 15, 6:00 AM)56% (May 18, 1:30 PM)29.80 "Hg (May 13, 4:00 PM)
Average81 °F84%29.90 "Hg
* Reported May 12 8:00 PM — May 27 8:30 PM, Gbarnga, Weather by CustomWeather, © 2015

Note: Actual official high and low records may vary slightly from our data, if they occured in-between our weather recording intervals... More about our weather records

Advertising

Gbarnga weather history for previous 24 hours

 ConditionsComfort  
Time TempWeatherWind HumidityBarometerVisibility
8:30 PM
Wed, May 27
81 °FThunderstorms. Passing clouds.No wind94%29.89 "HgN/A
8:00 PM79 °FThunderstorms. Passing clouds.No wind94%29.89 "Hg6 mi
7:30 PM81 °FThunderstorms. Partly sunny.No wind94%29.89 "Hg5 mi
7:00 PM82 °FThunderstorms. Partly sunny.6 mph84%29.86 "HgN/A
6:30 PM84 °FThunderstorms. Partly sunny.6 mph84%29.86 "HgN/A
6:00 PM84 °FThunderstorms. Scattered clouds.14 mph79%29.83 "HgN/A
5:30 PM86 °FThunderstorms. Partly sunny.12 mph75%29.83 "HgN/A
5:00 PM86 °FThunderstorms. Partly sunny.12 mph75%29.83 "HgN/A
4:30 PM88 °FThunderstorms. Partly sunny.3 mph70%29.83 "HgN/A
4:00 PM88 °FThunderstorms. Partly sunny.7 mph70%29.83 "HgN/A
3:30 PM88 °FThunderstorms. Partly sunny.9 mph70%29.83 "HgN/A
3:00 PM90 °FThunderstorms. Partly sunny.12 mph67%29.83 "HgN/A
2:30 PM90 °FPartly sunny.14 mph67%29.86 "HgN/A
2:00 PM90 °FPartly sunny.14 mph67%29.86 "HgN/A
1:30 PM90 °FPartly sunny.12 mph67%29.89 "HgN/A
12:30 PM88 °FPartly sunny.12 mph75%29.89 "HgN/A
12:00 PM88 °FPartly sunny.12 mph75%29.89 "HgN/A
11:30 AM88 °FPartly sunny.12 mph75%29.89 "HgN/A
11:00 AM88 °FPartly sunny.8 mph75%29.89 "HgN/A
10:30 AM88 °FPartly sunny.6 mph75%29.89 "HgN/A
10:00 AM86 °FPartly sunny.9 mph79%29.89 "HgN/A
9:30 AM86 °FPartly sunny.No wind79%29.89 "HgN/A
9:00 AM84 °FPassing clouds.No wind84%29.89 "HgN/A
8:00 AM81 °FPartly sunny.No wind94%29.89 "HgN/A
7:30 AM79 °FPassing clouds.No wind94%29.89 "HgN/A
7:00 AM79 °FPassing clouds.No wind94%29.86 "HgN/A
4:30 AM77 °FPassing clouds.No wind94%29.86 "HgN/A
11:00 PM
Tue, May 26
79 °FPassing clouds.No wind94%29.92 "HgN/A
10:30 PM79 °FPassing clouds.No wind94%29.92 "HgN/A
10:00 PM79 °FPassing clouds.No wind94%29.92 "HgN/A
Weather by CustomWeather, © 2015

See weather overviewHow to use our weather pages